FW7181 Weather Reports


Display with metric or nautical units.
time (UTC)temp
F
wind
direction
speed
MPH
gust
MPH
rain 1hr
in
rain 24hr
in
rain mn
in
humidity
%
barometer
mb
20260504022052 40 278 1.0 1.0 0.00 0.00 0.00 77 1012.6
20260504021550 40 318 1.0 1.0 0.00 0.00 0.00 78 1012.7
20260504021046 40 35 1.0 1.0 0.00 0.00 0.00 77 1012.8
20260504020543 41 29 0.0 0.0 0.00 0.00 0.00 75 1012.4
20260504020040 41 294 1.0 1.0 0.00 0.00 0.00 75 1012.6
20260504015536 41 1 0.0 1.0 0.00 0.00 0.00 74 1012.5
20260504015032 42 22 0.0 0.0 0.00 0.00 0.00 75 1012.7
20260504014528 42 345 0.0 0.0 0.00 0.00 0.00 73 1012.5
20260504014026 42 333 1.0 1.0 0.00 0.00 0.00 73 1012.3
20260504013524 42 343 1.0 2.0 0.00 0.00 0.00 72 1012.5
20260504013020 42 303 0.0 0.0 0.00 0.00 0.00 69 1012.3
20260504012518 43 325 1.0 1.0 0.00 0.00 0.00 68 1012.3
20260504012016 44 326 1.0 1.0 0.00 0.00 0.00 69 1012.3
20260504011512 43 319 1.0 1.0 0.00 0.00 0.00 68 1012.4
20260504011008 44 328 2.0 2.0 0.00 0.00 0.00 68 1012.2
20260504010504 45 302 1.0 1.0 0.00 0.00 0.00 64 1012.1
20260504010000 46 318 1.0 2.0 0.00 0.00 0.00 63 1012.1
20260504005457 46 254 0.0 1.0 0.00 0.00 0.00 63 1012.2
20260504004954 47 297 1.0 1.0 0.00 0.00 0.00 62 1012.3
20260504004452 48 341 1.0 2.0 0.00 0.00 0.00 57 1012.1
20260504003949 49 55 1.0 1.0 0.00 0.00 0.00 52 1012.0
20260504003445 50 122 0.0 1.0 0.00 0.00 0.00 56 1012.3
20260504002942 51 179 3.0 3.0 0.00 0.00 0.00 45 1012.1
20260504002439 52 176 1.0 2.0 0.00 0.00 0.00 45 1012.1
20260504001936 52 125 6.0 8.0 0.00 0.00 0.00 44 1012.1
20260504001433 52 113 4.0 6.0 0.00 0.00 0.00 44 1012.0
20260504000930 53 131 5.0 7.0 0.00 0.00 0.00 44 1012.2
20260504000427 53 189 3.0 3.0 0.00 0.00 0.00 43 1012.2
20260503235924 53 120 2.0 6.0 0.00 0.00 0.00 44 1012.1
20260503235422 53 173 7.0 9.0 0.00 0.00 0.00 45 1011.9
20260503234919 53 184 5.0 7.0 0.00 0.00 0.00 42 1011.9
20260503234417 53 197 3.0 5.0 0.00 0.00 0.00 42 1012.1
20260503233914 53 356 2.0 2.0 0.00 0.00 0.00 44 1012.2
20260503233411 53 212 6.0 7.0 0.00 0.00 0.00 42 1012.2
20260503232907 54 199 5.0 7.0 0.00 0.00 0.00 42 1012.0
20260503232405 53 57 8.0 9.0 0.00 0.00 0.00 42 1011.9
20260503231902 53 221 5.0 6.0 0.00 0.00 0.00 42 1012.1
20260503231359 53 102 2.0 3.0 0.00 0.00 0.00 43 1012.2
20260503230855 53 60 3.0 3.0 0.00 0.00 0.00 43 1012.0
20260503230352 53 154 4.0 6.0 0.00 0.00 0.00 43 1011.9
20260503225850 54 34 3.0 3.0 0.00 0.00 0.00 42 1012.1
20260503225345 54 217 7.0 10.0 0.00 0.00 0.00 42 1012.2
20260503224842 54 287 0.0 1.0 0.00 0.00 0.00 44 1012.2
20260503224339 55 197 1.0 2.0 0.00 0.00 0.00 42 1011.9
20260503223837 54 353 2.0 3.0 0.00 0.00 0.00 41 1012.0
20260503223334 55 87 3.0 5.0 0.00 0.00 0.00 41 1011.9
20260503222830 55 178 1.0 1.0 0.00 0.00 0.00 41 1011.9
20260503222329 55 346 4.0 6.0 0.00 0.00 0.00 40 1011.9
20260503221826 55 293 2.0 2.0 0.00 0.00 0.00 40 1012.0
20260503221325 55 161 1.0 1.0 0.00 0.00 0.00 40 1012.2
20260503220820 55 232 4.0 7.0 0.00 0.00 0.00 40 1012.1
20260503220318 54 188 6.0 7.0 0.00 0.00 0.00 41 1012.0
20260503215814 54 288 4.0 8.0 0.00 0.00 0.00 42 1012.1
20260503215312 54 169 6.0 13.0 0.00 0.00 0.00 41 1012.1
20260503214809 55 147 5.0 6.0 0.00 0.00 0.00 40 1012.0
20260503214306 56 199 10.0 14.0 0.00 0.00 0.00 41 1011.9
20260503213804 57 187 2.0 2.0 0.00 0.00 0.00 40 1012.1
20260503213301 55 2 3.0 3.0 0.00 0.00 0.00 39 1012.0
20260503212758 54 172 3.0 3.0 0.00 0.00 0.00 40 1012.0
20260503212256 55 165 2.0 2.0 0.00 0.00 0.00 39 1012.0
20260503211753 55 348 3.0 3.0 0.00 0.00 0.00 42 1012.1
20260503211249 54 330 5.0 7.0 0.00 0.00 0.00 40 1012.1
20260503210744 55 140 6.0 11.0 0.00 0.00 0.00 43 1011.9
20260503210242 55 189 2.0 3.0 0.00 0.00 0.00 40 1011.9
20260503205742 55 157 3.0 3.0 0.00 0.00 0.00 40 1011.9
20260503205239 54 198 3.0 5.0 0.00 0.00 0.00 42 1012.0
20260503204735 54 213 3.0 5.0 0.00 0.00 0.00 40 1012.2
20260503204233 54 275 6.0 8.0 0.00 0.00 0.00 39 1012.2
20260503203730 54 136 3.0 3.0 0.00 0.00 0.00 42 1012.0
20260503203228 53 351 2.0 3.0 0.00 0.00 0.00 42 1012.3
20260503202725 54 151 3.0 5.0 0.00 0.00 0.00 41 1012.3
20260503202223 54 234 9.0 10.0 0.00 0.00 0.00 40 1012.2
20260503201720 53 140 3.0 5.0 0.00 0.00 0.00 41 1012.4
20260503201218 54 141 3.0 5.0 0.00 0.00 0.00 40 1012.4
20260503200714 54 16 3.0 5.0 0.00 0.00 0.00 40 1012.2
20260503200210 54 36 3.0 3.0 0.00 0.00 0.00 40 1012.4
20260503195707 54 226 3.0 5.0 0.00 0.00 0.00 41 1012.4
20260503195204 54 338 2.0 6.0 0.00 0.00 0.00 39 1012.6
20260503194701 54 14 1.0 2.0 0.00 0.00 0.00 41 1012.5
20260503194156 54 174 5.0 7.0 0.00 0.00 0.00 40 1012.3
20260503193653 54 144 2.0 5.0 0.00 0.00 0.00 40 1012.8
20260503193149 54 343 3.0 6.0 0.00 0.00 0.00 40 1012.7
20260503192645 55 86 5.0 7.0 0.00 0.00 0.00 39 1012.8
20260503192141 55 186 4.0 5.0 0.00 0.00 0.00 41 1013.1
20260503191638 54 184 7.0 8.0 0.00 0.00 0.00 40 1013.1
20260503191135 54 111 3.0 5.0 0.00 0.00 0.00 41 1013.2
20260503190631 55 195 6.0 8.0 0.00 0.00 0.00 44 1013.1
20260503190128 55 183 3.0 7.0 0.00 0.00 0.00 40 1013.2
20260503185625 54 176 3.0 5.0 0.00 0.00 0.00 42 1013.3
20260503185120 54 82 3.0 3.0 0.00 0.00 0.00 42 1013.2
20260503184615 53 87 5.0 7.0 0.00 0.00 0.00 40 1013.3
20260503184112 52 186 8.0 10.0 0.00 0.00 0.00 41 1013.5
20260503183609 53 143 3.0 5.0 0.00 0.00 0.00 40 1013.5
20260503183106 53 109 3.0 3.0 0.00 0.00 0.00 44 1013.5
20260503182605 53 300 8.0 8.0 0.00 0.00 0.00 41 1013.7
20260503182102 52 113 3.0 3.0 0.00 0.00 0.00 42 1013.6
20260503181559 52 357 9.0 10.0 0.00 0.00 0.00 40 1013.8
20260503181055 52 32 3.0 5.0 0.00 0.00 0.00 41 1013.7
20260503180553 52 354 5.0 6.0 0.00 0.00 0.00 40 1013.5
20260503180050 52 164 1.0 2.0 0.00 0.00 0.00 40 1013.7
20260503175547 53 20 7.0 9.0 0.00 0.00 0.00 39 1013.7
20260503175044 54 4 2.0 3.0 0.00 0.00 0.00 39 1013.8
20260503174541 52 189 4.0 5.0 0.00 0.00 0.00 39 1013.7
20260503174038 53 214 11.0 16.0 0.00 0.00 0.00 42 1013.9
20260503173533 52 137 1.0 2.0 0.00 0.00 0.00 43 1013.9
20260503173029 53 18 5.0 7.0 0.00 0.00 0.00 39 1014.1
20260503172521 54 180 5.0 7.0 0.00 0.00 0.00 38 1013.9
20260503172018 51 289 6.0 9.0 0.00 0.00 0.00 41 1013.8
20260503171515 51 282 7.0 8.0 0.00 0.00 0.00 39 1013.9
20260503171012 52 353 8.0 9.0 0.00 0.00 0.00 43 1013.9
20260503170508 50 189 6.0 7.0 0.00 0.00 0.00 42 1014.0
20260503150900 48 299 5.0 7.0 0.00 0.00 0.00 46 1014.8
20260503150357 47 271 3.0 5.0 0.00 0.00 0.00 49 1014.9
20260503131250 42 111 2.0 2.0 0.00 0.00 0.00 64 1015.3
20260503130748 42 353 5.0 7.0 0.00 0.00 0.00 66 1015.5
20260503130246 42 305 3.0 5.0 0.00 0.00 0.00 67 1015.6
20260503120211 32 181 2.0 2.0 0.00 0.00 0.00 90 1015.6
20260503110638 26 205 0.0 0.0 0.00 0.00 0.00 98 1015.3
20260503110136 26 207 0.0 0.0 0.00 0.00 0.00 98 1015.0
20260503081446 27 251 0.0 0.0 0.00 0.00 0.00 95 1014.4
20260503080943 28 245 0.0 0.0 0.00 0.00 0.00 95 1014.5
20260503080439 28 276 0.0 1.0 0.00 0.00 0.00 95 1014.5
20260503072916 29 269 0.0 1.0 0.00 0.00 0.00 93 1014.3
20260503072413 29 285 0.0 1.0 0.00 0.00 0.00 93 1014.0
20260503071910 29 330 1.0 1.0 0.00 0.00 0.00 92 1014.2
20260503071407 29 264 0.0 0.0 0.00 0.00 0.00 92 1013.9
20260503070903 30 267 1.0 1.0 0.00 0.00 0.00 91 1013.9
20260503070400 30 24 1.0 1.0 0.00 0.00 0.00 90 1014.0
20260503060326 32 242 0.0 0.0 0.00 0.00 0.00 85 1014.2
20260503054814 32 222 0.0 0.0 0.00 0.00 0.00 84 1014.3
20260503054310 33 221 0.0 0.0 0.00 0.00 0.00 83 1014.3
20260503053808 33 239 0.0 0.0 0.00 0.00 0.00 83 1014.3
20260503053306 33 200 0.0 0.0 0.00 0.00 0.00 83 1014.2
20260503052802 32 202 0.0 0.0 0.00 0.00 0.00 82 1014.3
20260503052259 32 220 0.0 0.0 0.00 0.00 0.00 81 1014.2
20260503051755 33 220 0.0 0.0 0.00 0.00 0.00 80 1014.4
20260503051252 33 238 0.0 0.0 0.00 0.00 0.00 79 1014.5
20260503050748 33 261 0.0 0.0 0.00 0.00 0.00 78 1014.4
20260503050245 33 234 0.0 0.0 0.00 0.00 0.00 78 1014.6
20260503045742 34 242 0.0 0.0 0.00 0.00 0.00 77 1014.5
20260503045234 34 300 1.0 1.0 0.00 0.00 0.00 77 1014.7
20260503044730 34 297 1.0 1.0 0.00 0.00 0.00 77 1014.8
20260503044227 34 231 0.0 0.0 0.00 0.00 0.00 76 1014.7
20260503043724 34 241 0.0 0.0 0.00 0.00 0.00 76 1014.8
20260503043222 34 201 0.0 0.0 0.00 0.00 0.00 76 1014.8
20260503042717 34 236 0.0 0.0 0.00 0.00 0.00 75 1014.7
20260503042214 35 229 0.0 0.0 0.00 0.00 0.00 75 1014.6
20260503041710 35 7 1.0 1.0 0.00 0.00 0.00 74 1014.7
20260503041208 35 251 0.0 0.0 0.00 0.00 0.00 75 1014.9
20260503040705 35 247 0.0 1.0 0.00 0.00 0.00 76 1014.8
20260503040203 35 273 1.0 1.0 0.00 0.00 0.00 75 1014.7
20260503035659 35 349 1.0 1.0 0.00 0.00 0.00 75 1014.7
20260503035157 34 214 0.0 1.0 0.00 0.00 0.00 77 1014.7
20260503034654 34 228 0.0 0.0 0.00 0.00 0.00 77 1014.9
20260503034151 34 187 0.0 0.0 0.00 0.00 0.00 77 1014.8
20260503033648 34 202 0.0 0.0 0.00 0.00 0.00 77 1014.8
20260503033146 34 250 0.0 1.0 0.00 0.00 0.00 78 1014.8
20260503032644 34 335 1.0 2.0 0.00 0.00 0.00 76 1014.9
20260503032143 34 240 0.0 0.0 0.00 0.00 0.00 79 1014.9
20260503031639 34 160 0.0 1.0 0.00 0.00 0.00 77 1014.7
20260503031137 34 206 0.0 0.0 0.00 0.00 0.00 76 1014.9
20260503030633 34 205 0.0 0.0 0.00 0.00 0.00 75 1015.0
20260503030130 35 272 0.0 1.0 0.00 0.00 0.00 77 1014.8
20260503025626 35 223 0.0 0.0 0.00 0.00 0.00 75 1014.9
20260503025125 35 198 0.0 0.0 0.00 0.00 0.00 75 1014.9
20260503024621 35 196 0.0 0.0 0.00 0.00 0.00 75 1014.7
20260503024118 35 215 0.0 0.0 0.00 0.00 0.00 74 1015.0
20260503023615 36 225 0.0 0.0 0.00 0.00 0.00 72 1014.8
20260503023112 35 278 0.0 1.0 0.00 0.00 0.00 72 1014.9
20260503022607 35 216 0.0 1.0 0.00 0.00 0.00 74 1015.0